SENTINEL-5P

Last updated on Sun Jun 21 2026 00:02:52 GMT+0000 (Coordinated Universal Time)

1 42969U 17064A 26171.44423655 .00000041 00000+0 40558-4 0 9998 2 42969 98.7925 113.5524 0000991 87.3098 272.8191 14.19519441450027
UTC large
Height (km)
Speed (km/s)
/
Latitude / Longitude
Inclination (degrees)
Orbital Period (minutes)
Azimuth
Elevation
Range (km)
Doppler Factor

Next 0 passes for location: London (51.5072 / 0.1276)

No passes found over London.
SENTINEL-5P